Weather History for Truckee-Tahoe, CA

Change the Weather History Date:

Tuesday, January 8, 2013

  Actual Average Record
Temperature  
Mean Temperature 27 °F -  
Max Temperature 37 °F 39 °F 56 °F (1962)
Min Temperature 17 °F 13 °F -11 °F (1965)
Degree Days  
Heating Degree Days 38    
Moisture  
Dew Point 23 °F    
Average Humidity 94    
Maximum Humidity 100    
Minimum Humidity 80    
Precipitation  
Precipitation 0.00 in - - ()
Sea Level Pressure  
Sea Level Pressure 30.28 in    
Wind  
Wind Speed 1 mph (SSE)    
Max Wind Speed 6 mph    
Max Gust Speed -    
Visibility 3 miles    
Events Fog , Snow    
Averages and records for this station are not official NWS values.
T = Trace of Precipitation, MM = Missing Value Source: NWS Daily Summary

Daily Weather History Graph

Daily Weather History Graph

Search for Another Location

Airport:

Trip Planner

Search our weather history database for the weather conditions in past years. The results will help you decide how hot, cold, wet, or windy it might be!

Date:

Astronomy

Jan. 08, 2013 Rise Set
Actual Time 7:20 AM PST 4:54 PM PST
Civil Twilight 6:50 AM PST 5:24 PM PST
Nautical Twilight 6:17 AM PST 5:57 PM PST
Astronomical Twilight 5:44 AM PST 6:30 PM PST
Moon 3:59 AM PST (1/8) 2:01 PM PST (1/8)
Length of Visible Light 10h 33m
Length of Day
9h 34m
Waning Crescent, 13% of the Moon is Illuminated
Jan 8
Waning Crescent
Jan 11
New
Jan 18
First Quarter
Jan 26
Full
Feb 3
Last Quarter

Hourly Weather History & Observations

Time (PST) Temp. Windchill Dew Point Humidity Pressure Visibility Wind Dir Wind Speed Gust Speed Precip Events Conditions
12:15 AM 23.0 °F - 19.4 °F 86% 30.29 in 0.2 mi Calm Calm - N/A Snow Heavy Snow
12:35 AM 19.4 °F - 17.6 °F 93% 30.29 in 0.2 mi Calm Calm - N/A Fog Light Freezing Fog
12:55 AM 19.4 °F - 17.6 °F 93% 30.28 in 0.2 mi Calm Calm - N/A Fog Light Freezing Fog
1:15 AM 21.2 °F - 19.4 °F 93% 30.28 in 0.2 mi Calm Calm - N/A Fog Light Freezing Fog
1:35 AM 19.4 °F - 19.4 °F 100% 30.28 in 0.2 mi Calm Calm - N/A Fog Light Freezing Fog
1:55 AM 17.6 °F - 15.8 °F 93% 30.28 in 0.2 mi Calm Calm - N/A Fog Light Freezing Fog
2:15 AM 19.4 °F - 17.6 °F 93% 30.29 in 0.2 mi Calm Calm - N/A Fog Light Freezing Fog
2:35 AM 19.4 °F 12.8 °F 17.6 °F 93% 30.29 in 0.2 mi NE 4.6 mph - N/A Fog Light Freezing Fog
2:55 AM 17.6 °F - 15.8 °F 93% 30.30 in 0.2 mi Calm Calm - N/A Fog Light Freezing Fog
3:15 AM 17.6 °F 10.7 °F 15.8 °F 93% 30.31 in 0.2 mi South 4.6 mph - N/A Fog Light Freezing Fog
3:35 AM 17.6 °F 12.3 °F 15.8 °F 93% 30.30 in 0.2 mi SSW 3.5 mph - N/A Fog Light Freezing Fog
3:55 AM 23.0 °F - 21.2 °F 93% 30.30 in 0.2 mi Calm Calm - N/A Fog Light Freezing Fog
4:15 AM 19.4 °F 11.5 °F 19.4 °F 100% 30.30 in 0.2 mi ESE 5.8 mph - N/A Fog Light Freezing Fog
4:35 AM 19.4 °F - 17.6 °F 93% 30.29 in 0.2 mi Calm Calm - N/A Fog Light Freezing Fog
4:55 AM 21.2 °F 16.4 °F 19.4 °F 93% 30.29 in 0.2 mi SW 3.5 mph - N/A Fog Light Freezing Fog
5:15 AM 23.0 °F - 21.2 °F 93% 30.29 in 0.2 mi Calm Calm - N/A Fog Light Freezing Fog
5:35 AM 23.0 °F 18.4 °F 21.2 °F 93% 30.29 in 0.2 mi East 3.5 mph - N/A Fog Light Freezing Fog
6:50 AM 19.4 °F - 19.4 °F 100% 30.31 in 0.2 mi Calm Calm - N/A Fog Light Freezing Fog
7:45 AM 19.4 °F - 19.4 °F 100% 30.31 in 0.2 mi Calm Calm - N/A Fog Light Freezing Fog
8:45 AM 21.2 °F - 19.4 °F 93% 30.33 in 0.2 mi Calm Calm - N/A Fog Light Freezing Fog
9:45 AM 24.8 °F - 19.4 °F 80% 30.35 in 0.2 mi Calm Calm - N/A Fog Light Freezing Fog
10:45 AM 26.6 °F - 24.8 °F 93% 30.32 in 10.0 mi Calm Calm - N/A   Partly Cloudy
11:45 AM 28.4 °F - 26.6 °F 93% 30.29 in 10.0 mi Calm Calm - N/A   Partly Cloudy
12:45 PM 32.0 °F - 32.0 °F 100% 30.26 in 10.0 mi Calm Calm - N/A   Clear
1:45 PM 35.6 °F - 35.6 °F 100% 30.25 in 10.0 mi Calm Calm - N/A   Clear
2:55 PM 37.4 °F - 37.4 °F 100% 30.26 in 10.0 mi Calm Calm - N/A   Clear
4:45 PM 35.6 °F - 32.0 °F 87% 30.25 in 10.0 mi Calm Calm - N/A   Clear
4:55 PM 32.0 °F 28.7 °F 32.0 °F 100% 30.26 in 10.0 mi South 3.5 mph - N/A   Clear
5:15 PM 32.0 °F - 30.2 °F 93% 30.25 in 10.0 mi Calm Calm - N/A   Clear
5:35 PM 32.0 °F - 28.4 °F 87% 30.26 in 10.0 mi Calm Calm - N/A   Clear
5:55 PM 30.2 °F - 28.4 °F 93% 30.25 in 10.0 mi Calm Calm - N/A   Clear
6:15 PM 30.2 °F - 28.4 °F 93% 30.26 in 10.0 mi Calm Calm - N/A   Clear
6:35 PM 28.4 °F - 28.4 °F 100% 30.26 in 10.0 mi Calm Calm - N/A   Clear
6:55 PM 26.6 °F 22.6 °F 24.8 °F 93% 30.26 in 0.2 mi East 3.5 mph - N/A Fog Light Freezing Fog
7:15 PM 24.8 °F 20.5 °F 24.8 °F 100% 30.27 in 0.2 mi South 3.5 mph - N/A Fog Light Freezing Fog
7:35 PM 26.6 °F 22.6 °F 26.6 °F 100% 30.26 in 0.2 mi South 3.5 mph - N/A Fog Light Freezing Fog
7:55 PM 24.8 °F - 24.8 °F 100% 30.27 in 0.2 mi Calm Calm - N/A Fog Light Freezing Fog
8:15 PM 28.4 °F - 26.6 °F 93% 30.27 in 0.8 mi Calm Calm - N/A   Mist
8:35 PM 24.8 °F - 23.0 °F 93% 30.27 in 0.2 mi Calm Calm - N/A Fog Light Freezing Fog
8:55 PM 21.2 °F - 19.4 °F 93% 30.26 in 0.2 mi Calm Calm - N/A Fog Light Freezing Fog
9:15 PM 24.8 °F 20.5 °F 23.0 °F 93% 30.27 in 0.2 mi ENE 3.5 mph - N/A Fog Light Freezing Fog
9:35 PM 19.4 °F - 17.6 °F 93% 30.27 in 0.2 mi Calm Calm - N/A Fog Light Freezing Fog
9:55 PM 23.0 °F - 21.2 °F 93% 30.27 in 0.2 mi Calm Calm - N/A Fog Light Freezing Fog
10:15 PM 23.0 °F - 21.2 °F 93% 30.27 in 0.5 mi Calm Calm - N/A Fog Light Freezing Fog
10:35 PM 23.0 °F - 21.2 °F 93% 30.26 in 0.2 mi Calm Calm - N/A Fog Light Freezing Fog
10:55 PM 23.0 °F - 21.2 °F 93% 30.25 in 0.2 mi Calm Calm - N/A Fog Light Freezing Fog
11:15 PM 23.0 °F - 19.4 °F 86% 30.25 in 0.2 mi Calm Calm - N/A Fog Light Freezing Fog
11:35 PM 19.4 °F 14.3 °F 17.6 °F 93% 30.26 in 0.2 mi SE 3.5 mph - N/A Fog Light Freezing Fog
11:55 PM 19.4 °F 14.3 °F 19.4 °F 100% 30.25 in 0.2 mi West 3.5 mph - N/A Fog Light Freezing Fog